Terug naar catalogus

STARLINK-37210

ActiefCommunicatieVLEO
NORAD 68557·PAYLOAD·🇺🇸 United States

Gelanceerd Apr 2, 2026 vanaf Cape Canaveral Space Force Station

Loading…

Volgende Passages (komende 24 uur)

TLE

VersSource: CelesTrak SupGP

Epoch: Sep 14, 2026, 21:17 UTC

1 68557C 26070R   26257.88729167  .00017624  00000+0  52053-3 0  2570
2 68557  53.1578 199.8630 0001328  90.2965  25.6949 15.34392119    17

Volg STARLINK-37210 in realtime met AllMySat

Download on the App Store